Wichita Falls, TX

4:35 PM CDT on October 23, 2017 (GMT -0500)
Sheppard Air Force Base-Wichita Falls Municipal

Weather History for KSPS - February, 2014

Change the Weather History Date:

Sunday, February 2, 2014

  Actual Average Record
Temperature  
Mean Temperature 28 °F 43 °F  
Max Temperature 32 °F 56 °F 85 °F (2003)
Min Temperature 24 °F 31 °F -8 °F (1985)
Degree Days  
Heating Degree Days 37 22  
Month to date heating degree days 63 44  
Since 1 July heating degree days 2160 1954  
Moisture  
Dew Point 21 °F    
Average Humidity 79    
Maximum Humidity 92    
Minimum Humidity 66    
Precipitation  
Precipitation 0.44 in 0.05 in 0.58 in (1960)
Month to date precipitation 0.44 0.09  
Year to date precipitation 0.44 1.23  
Snow  
Snow 4.00 in 0.10 in - ()
Month to date snowfall 4.0 0.1  
Since 1 July snowfall 4.7 2.8  
Snow Depth 0.00 in    
Sea Level Pressure  
Sea Level Pressure 30.24 in    
Wind  
Wind Speed 16 mph (North)    
Max Wind Speed 29 mph    
Max Gust Speed 32 mph    
Visibility 5 miles    
Events Fog , Snow    
T = Trace of Precipitation, MM = Missing Value Source: NWS Daily Summary

Daily Weather History Graph

Daily Weather History Graph

Search for Another Location

Airport or City:

Trip Planner

Search our weather history database for the weather conditions in past years. The results will help you decide how hot, cold, wet, or windy it might be!

Date:

Astronomy

Feb. 02, 2014 Rise Set
Actual Time 7:30 AM CST 6:05 PM CST
Civil Twilight 7:03 AM CST 6:31 PM CST
Nautical Twilight 6:34 AM CST 7:01 PM CST
Astronomical Twilight 6:04 AM CST 7:31 PM CST
Moon 9:08 AM CST (2/2) 9:38 PM CST (2/2)
Length of Visible Light 11h 27m
Length of Day
10h 35m
Waxing Crescent, 11% of the Moon is Illuminated
Feb 2
Waxing Crescent
Feb 6
First Quarter
Feb 14
Full
Feb 22
Last Quarter
Mar 1
New

Hourly Weather History & Observations

Time (CST) Temp. Windchill Dew Point Humidity Pressure Visibility Wind Dir Wind Speed Gust Speed Precip Events Conditions
12:52 AM 32.0 °F 19.5 °F 23.0 °F 69% 30.12 in 9.0 mi North 21.9 mph 32.2 mph N/A   Mostly Cloudy
1:45 AM 32.0 °F 18.4 °F 23.0 °F 69% 30.10 in 9.0 mi NNE 26.5 mph 32.2 mph N/A   Partly Cloudy
1:52 AM 30.9 °F 17.2 °F 23.0 °F 72% 30.12 in 9.0 mi North 25.3 mph 32.2 mph N/A   Partly Cloudy
2:52 AM 30.9 °F 17.5 °F 21.9 °F 69% 30.14 in 10.0 mi North 24.2 mph 31.1 mph N/A   Overcast
3:52 AM 30.0 °F 16.3 °F 23.0 °F 75% 30.14 in 9.0 mi North 24.2 mph 29.9 mph N/A   Overcast
4:52 AM 30.0 °F 17.5 °F 23.0 °F 75% 30.15 in 8.0 mi North 19.6 mph 26.5 mph 0.00 in   Overcast
5:08 AM 28.4 °F 14.1 °F 23.0 °F 80% 30.13 in 7.0 mi North 24.2 mph 27.6 mph 0.00 in Snow Light Snow
5:52 AM 28.0 °F 15.7 °F 24.1 °F 85% 30.18 in 5.0 mi North 17.3 mph - 0.01 in   Overcast
6:16 AM 26.6 °F 13.8 °F 24.8 °F 93% 30.16 in 1.8 mi NNE 17.3 mph - 0.03 in Snow Light Snow
6:25 AM 26.6 °F 14.3 °F 24.8 °F 93% 30.17 in 1.0 mi North 16.1 mph - 0.08 in Snow Light Snow
6:32 AM 26.6 °F 13.1 °F 24.8 °F 93% 30.17 in 2.0 mi North 19.6 mph 25.3 mph 0.09 in Snow Light Snow
6:44 AM 26.6 °F 14.3 °F 24.8 °F 93% 30.17 in 1.2 mi North 16.1 mph - 0.11 in Snow Light Snow
6:52 AM 27.0 °F 15.2 °F 25.0 °F 92% 30.22 in 1.0 mi North 15.0 mph - 0.12 in Snow Light Snow
7:04 AM 26.6 °F 14.3 °F 24.8 °F 93% 30.23 in 0.8 mi North 16.1 mph - 0.03 in Snow Light Snow
7:13 AM 26.6 °F 13.8 °F 24.8 °F 93% 30.22 in 0.8 mi North 17.3 mph - 0.04 in Snow Light Snow
7:52 AM 25.0 °F 13.6 °F 23.0 °F 92% 30.24 in 0.5 mi North 12.7 mph - 0.07 in Fog , Snow Snow
8:06 AM 24.8 °F 12.9 °F 23.0 °F 93% 30.22 in 0.5 mi North 13.8 mph - 0.01 in Fog Light Freezing Fog
8:23 AM 24.8 °F 11.9 °F 23.0 °F 93% 30.23 in 0.5 mi North 16.1 mph - 0.02 in Fog Light Freezing Fog
8:33 AM 24.8 °F 11.9 °F 23.0 °F 93% 30.23 in 1.0 mi North 16.1 mph - 0.02 in   Mist
8:52 AM 25.0 °F 10.6 °F 23.0 °F 92% 30.25 in 1.5 mi North 20.7 mph 25.3 mph 0.02 in   Overcast
9:09 AM 24.8 °F 11.5 °F 21.2 °F 86% 30.26 in 2.0 mi North 17.3 mph - N/A   Overcast
9:21 AM 24.8 °F 11.1 °F 21.2 °F 86% 30.26 in 1.5 mi North 18.4 mph - N/A   Overcast
9:40 AM 24.8 °F 12.4 °F 21.2 °F 86% 30.27 in 1.2 mi North 15.0 mph - N/A   Overcast
9:49 AM 24.8 °F 10.7 °F 21.2 °F 86% 30.27 in 0.5 mi North 19.6 mph - N/A Fog Light Freezing Fog
9:52 AM 24.1 °F 9.8 °F 21.0 °F 88% 30.29 in 0.5 mi North 19.6 mph - N/A Fog Light Freezing Fog
9:59 AM 24.8 °F 10.7 °F 21.2 °F 86% 30.27 in 0.5 mi North 19.6 mph - 0.01 in Fog Light Freezing Fog
10:18 AM 24.8 °F 11.5 °F 21.2 °F 86% 30.27 in 1.2 mi North 17.3 mph - 0.01 in   Overcast
10:24 AM 24.8 °F 12.4 °F 21.2 °F 86% 30.27 in 2.0 mi North 15.0 mph - 0.01 in   Overcast
10:34 AM 24.8 °F 10.3 °F 21.2 °F 86% 30.26 in 1.5 mi North 20.7 mph - 0.01 in   Overcast
10:52 AM 24.1 °F 9.4 °F 21.0 °F 88% 30.30 in 3.0 mi North 20.7 mph - 0.01 in   Overcast
11:10 AM 24.8 °F 10.7 °F 19.4 °F 80% 30.29 in 3.0 mi NNW 19.6 mph - N/A   Overcast
11:20 AM 24.8 °F 10.0 °F 19.4 °F 80% 30.28 in 2.5 mi NNW 21.9 mph - N/A   Overcast
11:38 AM 24.8 °F 11.1 °F 19.4 °F 80% 30.28 in 3.0 mi NNW 18.4 mph - N/A   Overcast
11:52 AM 24.1 °F 9.0 °F 19.9 °F 84% 30.30 in 3.0 mi North 21.9 mph 31.1 mph N/A   Overcast
12:09 PM 24.8 °F 9.3 °F 19.4 °F 80% 30.28 in 1.8 mi North 24.2 mph 27.6 mph N/A   Overcast
12:28 PM 24.8 °F 9.6 °F 19.4 °F 80% 30.28 in 2.5 mi NNW 23.0 mph 29.9 mph N/A   Haze
12:37 PM 24.8 °F 9.6 °F 19.4 °F 80% 30.26 in 3.0 mi North 23.0 mph 29.9 mph N/A   Haze
12:52 PM 24.1 °F 8.7 °F 19.0 °F 81% 30.28 in 3.0 mi North 23.0 mph 29.9 mph N/A   Haze
1:28 PM 24.8 °F 10.3 °F 19.4 °F 80% 30.24 in 2.0 mi North 20.7 mph - N/A   Haze
1:43 PM 24.8 °F 10.7 °F 19.4 °F 80% 30.22 in 5.0 mi North 19.6 mph - N/A   Haze
1:52 PM 25.0 °F 10.6 °F 19.9 °F 81% 30.24 in 7.0 mi North 20.7 mph - N/A   Overcast
2:43 PM 26.6 °F 13.1 °F 19.4 °F 74% 30.21 in 9.0 mi North 19.6 mph - N/A   Overcast
2:52 PM 26.1 °F 12.3 °F 19.0 °F 75% 30.25 in 9.0 mi North 19.6 mph - N/A   Overcast
3:52 PM 27.0 °F 13.9 °F 19.0 °F 72% 30.26 in 9.0 mi North 18.4 mph - N/A   Overcast
4:52 PM 27.0 °F 15.6 °F 19.0 °F 72% 30.27 in 10.0 mi North 13.8 mph - N/A   Overcast
5:09 PM 26.6 °F 15.2 °F 19.4 °F 74% 30.25 in 10.0 mi North 13.8 mph - N/A   Overcast
5:34 PM 26.6 °F 16.8 °F 19.4 °F 74% 30.25 in 10.0 mi North 10.4 mph - 0.00 in   Overcast
5:52 PM 27.0 °F 16.7 °F 19.0 °F 72% 30.27 in 10.0 mi North 11.5 mph - 0.00 in   Overcast
6:20 PM 26.6 °F 17.5 °F 19.4 °F 74% 30.26 in 10.0 mi North 9.2 mph - N/A   Overcast
6:52 PM 27.0 °F 18.7 °F 19.9 °F 75% 30.30 in 10.0 mi NNW 8.1 mph - N/A   Overcast
7:52 PM 28.0 °F 20.0 °F 19.9 °F 72% 30.30 in 10.0 mi North 8.1 mph - N/A   Overcast
8:52 PM 28.0 °F 20.8 °F 21.0 °F 75% 30.29 in 10.0 mi North 6.9 mph - N/A   Overcast
9:52 PM 28.0 °F 20.0 °F 21.0 °F 75% 30.30 in 10.0 mi North 8.1 mph - N/A   Overcast
10:52 PM 28.9 °F 22.8 °F 21.0 °F 72% 30.30 in 10.0 mi NE 5.8 mph - N/A   Overcast
11:52 PM 28.9 °F 22.8 °F 21.0 °F 72% 30.30 in 10.0 mi North 5.8 mph - N/A   Overcast